GW6267 Weather Reports


time (UTC)temp
F
wind
direction
speed
knots
gust
knots
rain 1hr
in
rain 24hr
in
rain mn
in
humidity
%
barometer
mb
20260506134004 62 148 4.3 8.7 0.00 0.00 0.00 59 1029.7
20260506133025 62 147 4.3 8.7 0.00 0.00 0.00 59 1029.7
20260506132005 63 146 3.5 9.6 0.00 0.00 0.00 59 1029.5
20260506131025 63 149 4.3 9.6 0.00 0.00 0.00 59 1029.4
20260506130025 63 150 3.5 7.8 0.00 0.00 0.00 59 1029.4
20260506125004 63 151 4.3 7.8 0.00 0.00 0.00 59 1029.3
20260506124025 63 150 3.5 7.8 0.00 0.00 0.00 60 1029.2
20260506123004 63 149 3.5 7.8 0.00 0.00 0.00 60 1029.3
20260506122025 63 151 2.6 6.1 0.00 0.00 0.00 61 1029.2
20260506121004 63 156 1.7 7.0 0.00 0.00 0.00 61 1029.0
20260506120004 63 152 0.9 2.6 0.00 0.00 0.00 62 1029.0
20260506115025 63 152 1.7 3.5 0.00 0.00 0.00 61 1028.9
20260506114005 64 146 1.7 3.5 0.00 0.00 0.00 61 1028.8
20260506113025 64 151 1.7 4.3 0.00 0.00 0.00 60 1028.9
20260506112025 64 149 1.7 4.3 0.00 0.00 0.00 60 1028.7
20260506111004 64 150 2.6 5.2 0.00 0.00 0.00 60 1028.7
20260506110004 65 148 1.7 5.2 0.00 0.00 0.00 59 1028.6
20260506105004 65 150 2.6 6.1 0.00 0.00 0.00 59 1028.6
20260506104025 65 150 2.6 5.2 0.00 0.00 0.00 59 1028.5
20260506103004 66 150 0.9 4.3 0.00 0.00 0.00 59 1028.4
20260506102025 66 150 1.7 4.3 0.00 0.00 0.00 57 1028.4
20260506101004 67 150 1.7 4.3 0.00 0.00 0.00 55 1028.2
20260506100004 68 147 3.5 6.1 0.00 0.00 0.00 53 1028.2
20260506095004 68 134 2.6 5.2 0.00 0.00 0.00 52 1028.1
20260506094004 68 141 3.5 8.7 0.00 0.00 0.00 52 1027.9
20260506093004 69 137 3.5 6.1 0.00 0.00 0.00 52 1027.8
20260506092025 70 135 3.5 7.8 0.00 0.00 0.00 51 1027.7
20260506091004 70 141 4.3 9.6 0.00 0.00 0.00 50 1027.7
20260506090004 70 135 4.3 8.7 0.00 0.00 0.00 50 1027.7
20260506085025 70 133 4.3 9.6 0.00 0.00 0.00 51 1027.6
20260506084004 71 148 4.3 10.4 0.00 0.00 0.00 50 1027.6
20260506083004 71 138 4.3 9.6 0.00 0.00 0.00 51 1027.6
20260506082004 71 123 4.3 12.2 0.00 0.00 0.00 50 1027.6
20260506081004 71 115 5.2 10.4 0.00 0.00 0.00 49 1027.6
20260506073025 72 137 5.2 13.9 0.00 0.00 0.00 50 1027.5
20260506072004 72 134 4.3 11.3 0.00 0.00 0.00 51 1027.5
20260506071004 72 144 5.2 9.6 0.00 0.00 0.00 50 1027.5
20260506062004 72 117 5.2 12.2 0.00 0.00 0.00 50 1027.6
20260506061004 71 127 5.2 12.2 0.00 0.00 0.00 51 1027.7
20260506051004 71 129 6.1 11.3 0.00 0.00 0.00 53 1027.9
20260506045004 70 113 6.1 13.9 0.00 0.00 0.00 52 1028.2
20260506044004 71 109 5.2 11.3 0.00 0.00 0.00 52 1028.2
20260506043004 70 108 7.0 12.2 0.00 0.00 0.00 52 1028.4
20260506042004 70 103 6.1 10.4 0.00 0.00 0.00 53 1028.6
20260506041004 70 112 6.1 11.3 0.00 0.00 0.00 54 1028.7
20260506040004 70 96 6.1 12.2 0.00 0.00 0.00 54 1028.8
20260506035004 70 116 5.2 10.4 0.00 0.00 0.00 55 1028.9
20260506034024 69 111 5.2 11.3 0.00 0.00 0.00 56 1029.0
20260506033004 68 108 6.1 12.2 0.00 0.00 0.00 56 1029.1
20260506032003 68 98 5.2 11.3 0.00 0.00 0.00 57 1029.2
20260506031003 67 83 6.1 13.9 0.00 0.00 0.00 59 1029.3
20260506030004 67 92 7.0 13.0 0.00 0.00 0.00 60 1029.4
20260506025004 66 99 7.0 13.0 0.00 0.00 0.00 61 1029.4
20260506024024 66 101 7.8 13.9 0.00 0.00 0.00 61 1029.4
20260506023024 66 89 7.0 13.0 0.00 0.00 0.00 61 1029.5
20260506022003 66 93 5.2 10.4 0.00 0.00 0.00 61 1029.6
20260506021003 65 112 4.3 10.4 0.00 0.00 0.00 62 1029.7
20260506020004 64 103 5.2 11.3 0.00 0.00 0.00 64 1029.7
20260506015024 64 102 4.3 8.7 0.00 0.00 0.00 65 1029.7
20260506014003 62 122 5.2 11.3 0.00 0.00 0.00 67 1029.7
20260506013024 62 125 5.2 11.3 0.00 0.00 0.00 68 1029.8
20260506012003 61 119 3.5 7.8 0.00 0.00 0.00 69 1029.7
20260506011003 60 114 4.3 8.7 0.00 0.00 0.00 71 1029.7
20260506010004 60 116 4.3 9.6 0.00 0.00 0.00 72 1029.7
20260506005003 59 114 4.3 10.4 0.00 0.00 0.00 72 1029.7
20260506004024 58 117 5.2 14.8 0.00 0.00 0.00 73 1029.6
20260506003024 58 127 6.1 10.4 0.00 0.00 0.00 74 1029.5
20260506002024 57 127 3.5 10.4 0.00 0.00 0.00 75 1029.4
20260506001003 56 128 4.3 9.6 0.00 0.00 0.00 75 1029.3
20260506000003 56 142 3.5 7.8 0.00 0.00 0.00 76 1029.2
20260505235003 56 139 3.5 7.8 0.00 0.00 0.00 77 1029.1
20260505234003 55 144 4.3 9.6 0.00 0.00 0.00 77 1029.0
20260505233004 55 148 3.5 7.8 0.00 0.00 0.00 78 1028.9
20260505232003 55 139 4.3 10.4 0.00 0.00 0.00 78 1028.6
20260505231003 55 126 4.3 8.7 0.00 0.00 0.00 78 1028.3
20260505230003 54 120 4.3 9.6 0.00 0.00 0.00 79 1028.2
20260505225003 54 122 3.5 7.8 0.00 0.00 0.00 79 1028.1
20260505224003 54 121 3.5 8.7 0.00 0.00 0.00 79 1028.1
20260505223024 54 127 3.5 9.6 0.00 0.00 0.00 79 1028.0
20260505222003 54 123 3.5 8.7 0.00 0.00 0.00 79 1027.9
20260505221024 55 134 2.6 7.0 0.00 0.00 0.00 78 1027.9
20260505220003 55 137 4.3 8.7 0.00 0.00 0.00 78 1027.9
20260505215003 55 142 3.5 11.3 0.00 0.00 0.00 78 1027.8
20260505214003 55 135 4.3 9.6 0.00 0.00 0.00 77 1027.7
20260505213003 55 128 4.3 7.8 0.00 0.00 0.00 77 1027.5
20260505212003 55 141 4.3 12.2 0.00 0.00 0.00 77 1027.5
20260505211003 56 142 4.3 9.6 0.00 0.00 0.00 76 1027.5
20260505210003 56 142 4.3 9.6 0.00 0.00 0.00 76 1027.4
20260505205003 56 144 5.2 10.4 0.00 0.00 0.00 76 1027.3
20260505204003 56 146 5.2 10.4 0.00 0.00 0.00 75 1027.3
20260505203003 56 147 5.2 11.3 0.00 0.00 0.00 75 1027.1
20260505202003 56 147 6.1 11.3 0.00 0.00 0.00 74 1027.1
20260505201003 56 147 6.1 10.4 0.00 0.00 0.00 74 1027.0
20260505200003 56 147 5.2 10.4 0.00 0.00 0.00 74 1027.1
20260505195003 56 147 5.2 10.4 0.00 0.00 0.00 73 1027.0
20260505194025 57 149 5.2 9.6 0.00 0.00 0.00 73 1027.0
20260505193025 57 147 4.3 8.7 0.00 0.00 0.00 73 1027.1
20260505192004 57 148 4.3 7.0 0.00 0.00 0.00 72 1027.1
20260505191004 57 144 3.5 7.0 0.00 0.00 0.00 72 1027.0
20260505190004 57 140 2.6 7.0 0.00 0.00 0.00 72 1026.9
20260505185004 57 148 3.5 7.0 0.00 0.00 0.00 71 1026.9
20260505184004 58 144 2.6 6.1 0.00 0.00 0.00 70 1027.0
20260505183004 58 143 3.5 7.0 0.00 0.00 0.00 70 1027.1
20260505182004 58 144 3.5 7.8 0.00 0.00 0.00 69 1027.1
20260505181004 58 139 4.3 8.7 0.00 0.00 0.00 69 1027.1
20260505180025 59 136 4.3 7.8 0.00 0.00 0.00 68 1027.0
20260505175004 59 141 4.3 9.6 0.00 0.00 0.00 68 1026.9
20260505174004 59 136 4.3 12.2 0.00 0.00 0.00 68 1026.9
20260505173004 59 137 4.3 11.3 0.00 0.00 0.00 68 1026.9
20260505172004 59 141 4.3 9.6 0.00 0.00 0.00 68 1026.8
20260505171004 59 144 4.3 8.7 0.00 0.00 0.00 68 1026.8
20260505170025 59 145 5.2 9.6 0.00 0.00 0.00 67 1026.8
20260505165004 60 146 6.1 12.2 0.00 0.00 0.00 66 1026.7
20260505164004 59 141 4.3 10.4 0.00 0.00 0.00 67 1026.6
20260505163025 59 148 3.5 7.8 0.00 0.00 0.00 67 1026.7
20260505162004 60 138 2.6 7.0 0.00 0.00 0.00 66 1026.6
20260505161025 60 144 4.3 7.8 0.00 0.00 0.00 66 1026.4
20260505153004 58 151 1.7 4.3 0.00 0.00 0.00 71 1026.5
20260505152004 58 153 0.9 3.5 0.00 0.00 0.00 72 1026.5
20260505151025 58 153 0.9 1.7 0.00 0.00 0.00 72 1026.4